Regional Weather Roundup
Issued by NWS

Home | Current Version | Previous Version | Graphics & Text | Print | Product List | Glossary On
Versions: 1 2 3 4 5 6 7 8 9 10 11 12 13 14 15 16 17 18 19 20 21 22 23 24 25 26 27 28 29 30 31 32 33 34 35 36 37 38 39 40 41 42 43 44 45 46 47 48 49 50
514
ASUS45 KBOI 041710
RWRID

IDAHO REGIONAL WEATHER ROUNDUP
NATIONAL WEATHER SERVICE BOISE ID
1000 AM MST SUN DEC 04 2016

NOTE: "FAIR" INDICATES FEW OR NO CLOUDS BELOW 12000 FEET
WITH NO SIGNIFICANT WEATHER AND/OR OBSTRUCTIONS TO VISIBILITY

IDZ012-014-041800-
SOUTHWEST IDAHO


CITY           SKY/WX    TMP DP  RH WIND       PRES   REMARKS
BOISE          LGT RAIN  41  34  76 E12       29.95F
CALDWELL       CLOUDY    40  29  64 NE8       29.95F WCI  34
MOUNTAIN HOME  CLOUDY    38  29  69 E12       29.97F WCI  30
$$

IDZ016-017-041800-
SOUTHCENTRAL IDAHO


CITY           SKY/WX    TMP DP  RH WIND       PRES   REMARKS
BURLEY         CLOUDY    38  20  48 S20       30.00F WCI  28
JEROME         CLOUDY    40  23  50 S6        29.99F
TWIN FALLS     CLOUDY    42  23  46 S16       29.98F
$$

IDZ019>023-041800-
SOUTHEAST IDAHO


CITY           SKY/WX    TMP DP  RH WIND       PRES   REMARKS
IDAHO FALLS    CLOUDY    34  23  64 S20G30    29.95F WCI  23
POCATELLO      CLOUDY    35  22  58 S17G24    30.01F WCI  25
REXBURG        CLOUDY    32  24  72 S12G22    29.95F WCI  23
$$

IDZ006-010-011-018-031-032-041800-
CENTRAL IDAHO MOUNTAINS


CITY           SKY/WX    TMP DP  RH WIND       PRES   REMARKS
MCCALL         LGT SNOW  31  28  89 SE13      29.84F FOG     WCI  21
HAILEY         SNOW      25  25 100 CALM      29.98F VSB 1/2
STANLEY          N/A     31  29  92 S8G16     29.85F WCI  23
SALMON         CLOUDY    27  25  93 CALM      29.85S VSB 1
CHALLIS        CLOUDY    30  24  78 N6        29.82F WCI  24
$$

IDZ002-004-006-007-026-041800-
NORTHERN IDAHO


CITY           SKY/WX    TMP DP  RH WIND       PRES   REMARKS
LEWISTON       LGT RAIN  42  36  79 SW7       29.84S
LOWELL           N/A     33  31  92 CALM      29.87F
COEUR D`ALENE  LGT RAIN  36  34  92 W9        29.75R FOG     WCI  29
MULLAN PASS    SNOW      25  23  92 VRB7      29.61S VSB 1/4 WCI  17
$$




USA.gov is the U.S. government's official web portal to all federal, state and local government web resources and services.